Content
SEND FEEDBACK

Daily
Averages
Monthly
Summary
United States of America

BARRINGTON, ILLINOIS


Home > North America > United States > Illinois
Elevation: 810 feet     Latitude: 42 10N     Longitude: 088 09W

WEATHER
 
SELECT A DAY
Number of Records: 201,371;   Date Range: 1/1/95 - 12/19/14
 
SHARE

PRINT THIS DATA

[ ← Previous Day ]
WEATHER ALMANAC - OCTOBER 15, 2013
[ Next Day → ]
[ °C ]   °F
Weather ElementAverageHighLow
Temperature58.6 °F63 °F (11:51 am)51.1 °F (11:51 pm)
Dewpoint53 °F61 °F (3:51 pm)43 °F (11:51 pm)
Humidity82.2 %100 % (2:04 pm)67 % (8:51 pm)
Barometer29.88 in30.09 in (1:51 am)29.77 in (4:25 pm)
Wind Speed10.8 mph16.1 mph (12:51 pm)
Wind Gust27.6 mph (7:51 pm)
Weather ElementAverage
Visibility7.6 mi
Wind DirectionSSW (192.8 °)

Weather ElementTotal
Precipitation0.16 in
Heating Degree Days8 (Base 65)
Growing Degree Days7.1 (Base 50)
Averaged from 29 records on October 15, 2013
WEATHER CONDITIONS BREAKOUT
WIND DIRECTION BREAKOUT
WEATHER BY HOUR - OCTOBER 15, 2013
[ °C ]   °F
Local TimeTemperatureDewpointHumidityBarometerVisibilityWind DirectionWind SpeedGust SpeedPrecipitationEventsConditions
1:51 AM54.0 °F45.0 °F72 %30.09 in10.0 miSE (140°)11.5 mphOvercast
2:51 AM55.0 °F45.0 °F69 %30.07 in10.0 miSSE (150°)13.8 mphOvercast
3:51 AM54.0 °F46.0 °F75 %30.05 in10.0 miSE (140°)11.5 mphOvercast
4:51 AM53.1 °F46.0 °F77 %30.04 in10.0 miSE (140°)6.9 mphOvercast
5:51 AM53.1 °F46.9 °F80 %30.03 in10.0 miSSE (150°)8.1 mphOvercast
6:51 AM53.1 °F46.9 °F80 %29.99 in10.0 miSE (140°)9.2 mphOvercast
7:51 AM54.0 °F46.9 °F77 %29.98 in10.0 miSSE (160°)6.9 mphOvercast
8:51 AM57.0 °F46.9 °F69 %29.95 in10.0 miSSE (160°)12.7 mph18.4 mph0.00 inOvercast
9:51 AM57.9 °F48.9 °F72 %29.92 in10.0 miSouth (170°)12.7 mph0.00 inOvercast
10:51 AM61.0 °F52.0 °F72 %29.89 in10.0 miSouth (180°)11.5 mph0.00 inOvercast
11:51 AM63.0 °F54.0 °F72 %29.88 in10.0 miSouth (190°)9.2 mphOvercast
12:51 PM63.0 °F55.9 °F78 %29.85 in7.0 miSSW (200°)16.1 mph21.9 mph0.00 inRainLight Rain
1:04 PM60.8 °F57.2 °F88 %29.84 in3.0 miSouth (180°)10.4 mph0.01 inRainRain
1:25 PM60.8 °F59.0 °F94 %29.82 in2.5 miSouth (170°)12.7 mph0.03 inRainRain
1:36 PM60.8 °F59.0 °F94 %29.81 in2.5 miSouth (180°)11.5 mph0.05 inRainLight Rain
1:51 PM61.0 °F60.1 °F97 %29.81 in2.0 miSouth (190°)12.7 mph0.07 inRainLight Rain
2:04 PM60.8 °F60.8 °F100 %29.81 in3.0 miSSW (200°)12.7 mph20.7 mph0.00 inRainLight Rain
2:51 PM62.1 °F60.1 °F93 %29.80 in3.0 miSSW (200°)11.5 mph24.2 mph0.00 inOvercast
3:51 PM62.1 °F61.0 °F96 %29.78 in4.0 miSSW (210°)12.7 mph0.00 inOvercast
4:25 PM62.6 °F60.8 °F94 %29.77 in6.0 miSSW (210°)11.5 mph0.00 inOvercast
4:51 PM63.0 °F61.0 °F93 %29.77 in6.0 miSSW (200°)10.4 mph0.00 inOvercast
5:18 PM62.6 °F60.8 °F94 %29.77 in7.0 miSSW (210°)9.2 mphMostly Cloudy
5:51 PM63.0 °F61.0 °F93 %29.77 in7.0 miSouth (190°)9.2 mphScattered Clouds
6:51 PM61.0 °F60.1 °F97 %29.77 in7.0 miSouth (180°)5.8 mphScattered Clouds
7:51 PM63.0 °F55.0 °F75 %29.79 in10.0 miWest (260°)15.0 mph27.6 mphMostly Cloudy
8:51 PM57.9 °F46.9 °F67 %29.83 in10.0 miWest (280°)12.7 mph24.2 mphScattered Clouds
9:51 PM55.0 °F46.0 °F72 %29.85 in10.0 miWest (280°)6.9 mphScattered Clouds
10:51 PM53.1 °F44.1 °F71 %29.85 in10.0 miWest (270°)10.4 mphPartly Cloudy
11:51 PM51.1 °F43.0 °F74 %29.85 in10.0 miWest (260°)9.2 mphPartly Cloudy
Hourly data recorded from KORD, located miles away from Barrington, Illinois







STORIES FROM OUR PARTNERS